This is the latest recevied weather packets stored in our database for station/object KD8DLP-13. If no packets are shown the sender has not sent any weather packets the latest 10 day(s).
| Time | Temp. | Humidity | Pressure | Rain* | Wind** | Luminosity | Snow |
|---|---|---|---|---|---|---|---|
| 1777582686 | 9.44° C | 49% | 1016.5 hPa | 0 mm | - | 244 W/m² | - |
| 1777582381 | 9.44° C | 50% | 1016.6 hPa | 0 mm | - | 172 W/m² | - |
| 1777582079 | 10° C | 50% | 1016.7 hPa | 0 mm | - | 137 W/m² | - |
| 1777581774 | 9.44° C | 51% | 1016.6 hPa | 0 mm | - | 189 W/m² | - |
| 1777581473 | 10.56° C | 48% | 1016.5 hPa | 0 mm | - | 192 W/m² | - |
| 1777581167 | 11.67° C | 47% | 1016.6 hPa | 0 mm | - | 271 W/m² | - |
| 1777580862 | 11.67° C | 46% | 1016.5 hPa | 0 mm | - | 436 W/m² | - |
| 1777580558 | 12.78° C | 43% | 1016.9 hPa | 0 mm | - | 471 W/m² | - |
| 1777580253 | 12.22° C | 43% | 1016.6 hPa | 0 mm | - | 590 W/m² | - |
| 1777579951 | 12.78° C | 42% | 1016.6 hPa | 0 mm | - | 582 W/m² | - |
| 1777579646 | 12.22° C | 40% | 1016.7 hPa | 0 mm | - | 578 W/m² | - |
| 1777579345 | 12.22° C | 41% | 1016.6 hPa | 0 mm | - | 591 W/m² | - |
| 1777579040 | 13.33° C | 39% | 1016.7 hPa | 0 mm | - | 603 W/m² | - |
| 1777578735 | 13.33° C | 39% | 1016.8 hPa | 0 mm | - | 611 W/m² | - |
| 1777578435 | 12.22° C | 42% | 1016.7 hPa | 0 mm | - | 619 W/m² | - |
| 1777578131 | 13.33° C | 39% | 1016.7 hPa | 0 mm | - | 630 W/m² | - |
| 1777577827 | 13.33° C | 40% | 1016.8 hPa | 0 mm | - | 638 W/m² | - |
| 1777577522 | 13.33° C | 42% | 1016.9 hPa | 0 mm | - | 649 W/m² | - |
| 1777577219 | 13.89° C | 40% | 1016.9 hPa | 0 mm | - | 659 W/m² | - |
| 1777576915 | 12.78° C | 40% | 1016.7 hPa | 0 mm | - | 671 W/m² | - |
| 1777576611 | 12.78° C | 41% | 1016.8 hPa | 0 mm | - | 680 W/m² | - |
| 1777576306 | 12.22° C | 44% | 1016.9 hPa | 0 mm | - | 686 W/m² | - |
| 1777576003 | 12.78° C | 42% | 1016.8 hPa | 0 mm | - | 694 W/m² | - |
| 1777575699 | 12.78° C | 42% | 1016.7 hPa | 0 mm | - | 700 W/m² | - |
| 1777575395 | 12.78° C | 43% | 1016.8 hPa | 0 mm | - | 707 W/m² | - |
* Rain latest hour (hover to see other rain measurements)
** Current wind speed in m/s (hover to see current wind gust speed)